785  
NZUS59 KLOT 190303  
HRRLOT  
 
CHICAGO AREA WEATHER ROUNDUP  
NATIONAL WEATHER SERVICE CHICAGO/ROMEOVILLE IL  
1000 PM CDT WED JUL 18 2018  
 
NOTE: "FAIR" INDICATES FEW OR NO CLOUDS BELOW 12,000 FEET WITH NO  
SIGNIFICANT WEATHER AND/OR OBSTRUCTIONS TO VISIBILITY.  
 
* THESE STATIONS ARE NOT UNDER NWS QUALITY CONTROL. THEY ALSO MAY NOT  
REPORT WEATHER SUCH AS PRECIPITATION OR FOG.  
 
ILZ005-006-012>014-019>023-190400-  
NORTHEAST ILLINOIS  
 
CITY SKY/WX TMP DP RH WIND PRES REMARKS  
OHARE CLOUDY 72 50 45 E7 30.05S  
MIDWAY MOCLDY 73 53 49 E8 30.05R  
AURORA N/A 68 54 60 E7 30.05S  
LANSING* N/A 68 59 72 CALM 30.06S  
JOLIET* N/A 69 54 59 E3 30.06R  
WAUKEGAN N/A 62 58 86 CALM 30.05R  
DUPAGE AIRPORT N/A 68 53 58 E5 30.05S  
WHEELING N/A 70 58 65 CALM 30.07R  
KANKAKEE* N/A 64 53 68 NE3 30.06S  
MORRIS* N/A 65 55 68 E3 30.05R  
NORTHERLY ISL N/A 69 56 62 NE5 N/A  
NORTHERLY IS NOT AVBL  
NORTHERLY ISL NOT AVBL  

 
 
WIZ051-052-058>065-066-070>072-190400-  
SOUTHEAST WISCONSIN  
 
CITY SKY/WX TMP DP RH WIND PRES REMARKS  
MILWAUKEE MOCLDY 69 56 62 S5 30.06R  
KENOSHA* N/A 66 58 75 S5 30.06R  
RACINE* N/A 69 57 65 CALM 30.07S  
WAUKESHA N/A 64 52 63 SE5 30.08R  
WEST BEND N/A 63 55 77 CALM 30.06S  

 
 
INZ001>003-010>013-019-020-190400-  
NORTHWEST INDIANA  
 
CITY SKY/WX TMP DP RH WIND PRES REMARKS  
GARY* MOCLDY 70 57 64 NE7 30.07R  
MICHIGAN CITY* NOT AVBL  
RENSSELAER* NOT AVBL  
VALPARAISO N/A 65 57 75 CALM 30.06R  

 
 
LMZ740>746-190400-  
SOUTHERN LAKE MICHIGAN  
 
STATION/POSITION TIME SKY/WX TEMP WIND PRES VSBY  
AIR DIR/SP/G  
(UTC) (F) (DEG/KT/KT) (MB) (MI)  
HARRISON CRIB 0240 72 40/ 5/ 6 N/A  
NORTHERLY ISL 0300 69 30/ 4/ 6 N/A  
CALUMET HARBOR 0230 71 30/ 4/ 5 1017.3R  
BURNS HARBOR 0240 69 70/ 4/ 7 1018.3R  
MICHIGAN CITY 0240 65 50/ 7/ 7 N/A  

 
 
ABBREVIATIONS USED IN REMARKS  
TC - TEMPERATURE IN CELSIUS  
WCI - WIND CHILL INDEX  
HX - HEAT INDEX  
VSB - VISIBILITY  

 
 
 
CLICK HERE TO GO TO PREVIOUS BULLETINS.

The Nexlab IL Page
The Nexlab IN Page Main Text Page